Time,TemperatureF,DewpointF,PressureIn,WindDirection,WindDirectionDegrees,WindSpeedMPH,WindSpeedGustMPH,Humidity,HourlyPrecipIn,Conditions,Clouds,dailyrainin,SoftwareType,DateUTC
2013-09-01 00:01:00,67.1,66.5,31.01,SSE,166,0.0,0.0,98,0.00,,---,0.00,VWS V14.01,2013-09-01 04:01:00,
2013-09-01 00:02:00,67.1,66.5,31.01,SSE,166,0.0,0.0,98,0.00,,---,0.00,VWS V14.01,2013-09-01 04:02:00,
2013-09-01 00:07:00,67.1,66.5,31.01,SSE,166,0.0,0.0,98,0.00,,---,0.00,VWS V14.01,2013-09-01 04:07:00,
2013-09-01 00:12:00,67.1,66.5,31.01,SSE,166,0.0,0.0,98,0.00,,---,0.00,VWS V14.01,2013-09-01 04:12:00,
2013-09-01 00:16:00,67.1,66.5,31.01,SSE,166,0.0,0.0,98,0.00,,---,0.00,VWS V14.01,2013-09-01 04:16:00,
2013-09-01 00:21:00,67.1,66.5,31.01,SSE,166,0.0,0.0,98,0.00,,---,0.00,VWS V14.01,2013-09-01 04:21:00,
2013-09-01 00:26:00,67.1,66.5,31.01,SSE,166,0.0,0.0,98,0.00,,---,0.00,VWS V14.01,2013-09-01 04:26:00,
2013-09-01 00:31:00,67.1,66.5,31.01,SSE,166,0.0,0.0,98,0.00,,---,0.00,VWS V14.01,2013-09-01 04:31:00,
2013-09-01 00:36:00,66.9,66.3,31.01,SSE,166,0.0,0.0,98,0.00,,---,0.00,VWS V14.01,2013-09-01 04:36:00,
2013-09-01 00:41:00,66.9,66.3,31.01,SSE,166,0.0,0.0,98,0.00,,---,0.00,VWS V14.01,2013-09-01 04:41:00,
2013-09-01 00:46:00,66.9,66.3,31.01,SSE,166,0.0,0.0,98,0.00,,---,0.00,VWS V14.01,2013-09-01 04:46:00,
2013-09-01 00:51:00,66.9,66.3,31.01,SSE,166,0.0,0.0,98,0.00,,---,0.00,VWS V14.01,2013-09-01 04:51:00,
2013-09-01 00:56:00,66.9,66.3,31.01,SSE,166,0.0,0.0,98,0.00,,---,0.00,VWS V14.01,2013-09-01 04:56:00,
2013-09-01 01:01:00,66.7,66.2,31.01,SSE,166,0.0,0.0,98,0.00,,---,0.00,VWS V14.01,2013-09-01 05:01:00,
2013-09-01 01:06:00,66.7,66.2,31.01,SSE,166,0.0,0.0,98,0.00,,---,0.00,VWS V14.01,2013-09-01 05:06:00,
2013-09-01 01:11:00,66.7,66.2,31.01,SSE,166,0.0,0.0,98,0.00,,---,0.00,VWS V14.01,2013-09-01 05:11:00,
2013-09-01 01:16:00,66.9,66.3,31.01,SSE,166,0.0,0.0,98,0.00,,---,0.00,VWS V14.01,2013-09-01 05:16:00,
2013-09-01 01:21:00,66.9,66.3,31.01,SSE,166,0.0,0.0,98,0.00,,---,0.00,VWS V14.01,2013-09-01 05:21:00,
2013-09-01 01:26:00,66.9,66.3,31.01,SSE,166,0.0,0.0,98,0.00,,---,0.00,VWS V14.01,2013-09-01 05:26:00,
2013-09-01 01:32:00,66.9,66.3,31.01,SSE,166,0.0,0.0,98,0.00,,---,0.00,VWS V14.01,2013-09-01 05:32:00,
2013-09-01 01:37:00,66.7,66.2,31.01,SSE,166,0.0,0.0,98,0.00,,---,0.00,VWS V14.01,2013-09-01 05:37:00,
2013-09-01 01:42:00,66.9,66.3,31.01,SSE,166,0.0,0.0,98,0.00,,---,0.00,VWS V14.01,2013-09-01 05:42:00,
2013-09-01 01:47:00,66.9,66.3,31.01,SSE,166,0.0,0.0,98,0.00,,---,0.00,VWS V14.01,2013-09-01 05:47:00,
2013-09-01 01:52:00,66.9,66.3,31.01,SSE,166,0.0,0.0,98,0.00,,---,0.00,VWS V14.01,2013-09-01 05:52:00,
2013-09-01 01:57:00,66.9,66.3,31.01,SSE,166,0.0,0.0,98,0.00,,---,0.00,VWS V14.01,2013-09-01 05:57:00,
2013-09-01 02:02:00,67.1,66.5,31.01,SSE,166,0.0,0.0,98,0.00,,---,0.00,VWS V14.01,2013-09-01 06:02:00,
2013-09-01 02:07:00,67.1,66.5,31.01,SSE,166,0.0,0.0,98,0.00,,---,0.00,VWS V14.01,2013-09-01 06:07:00,
2013-09-01 02:11:00,67.1,66.5,31.01,SSE,166,0.0,0.0,98,0.00,,---,0.00,VWS V14.01,2013-09-01 06:11:00,
2013-09-01 02:16:00,67.1,66.5,31.01,SSE,166,0.0,0.0,98,0.00,,---,0.00,VWS V14.01,2013-09-01 06:16:00,
2013-09-01 02:21:00,66.9,66.3,31.01,SSE,166,0.0,0.0,98,0.00,,---,0.00,VWS V14.01,2013-09-01 06:21:00,
2013-09-01 02:26:00,66.9,66.3,31.01,SSE,166,0.0,0.0,98,0.00,,---,0.00,VWS V14.01,2013-09-01 06:26:00,
2013-09-01 02:31:00,66.7,66.2,31.01,SSE,166,0.0,0.0,98,0.00,,---,0.00,VWS V14.01,2013-09-01 06:31:00,
2013-09-01 02:36:00,66.7,66.2,31.01,SSE,166,0.0,0.0,98,0.00,,---,0.00,VWS V14.01,2013-09-01 06:36:00,
2013-09-01 02:41:00,66.7,66.2,31.01,SSE,166,0.0,0.0,98,0.00,,---,0.00,VWS V14.01,2013-09-01 06:41:00,
2013-09-01 02:46:00,66.7,66.2,31.01,SSE,166,0.0,0.0,98,0.00,,---,0.00,VWS V14.01,2013-09-01 06:46:00,
2013-09-01 02:51:00,66.6,66.0,31.01,SSE,166,0.0,0.0,98,0.00,,---,0.00,VWS V14.01,2013-09-01 06:51:00,
2013-09-01 02:56:00,66.4,65.8,31.01,SSE,166,0.0,0.0,98,0.00,,---,0.00,VWS V14.01,2013-09-01 06:56:00,
2013-09-01 03:01:00,66.4,65.8,31.01,SSE,166,0.0,0.0,98,0.00,,---,0.00,VWS V14.01,2013-09-01 07:01:00,
2013-09-01 03:06:00,66.4,65.8,31.01,SSE,166,0.0,0.0,98,0.00,,---,0.00,VWS V14.01,2013-09-01 07:06:00,
2013-09-01 03:11:00,66.2,65.6,31.01,SSE,166,0.0,0.0,98,0.00,,---,0.00,VWS V14.01,2013-09-01 07:11:00,
2013-09-01 03:16:00,66.0,65.4,31.01,SSE,166,0.0,0.0,98,0.00,,---,0.00,VWS V14.01,2013-09-01 07:16:00,
2013-09-01 03:21:00,66.0,65.4,31.01,SSE,166,0.0,0.0,98,0.00,,---,0.00,VWS V14.01,2013-09-01 07:21:00,
2013-09-01 03:26:00,66.0,65.4,31.01,SSE,166,0.0,0.0,98,0.00,,---,0.00,VWS V14.01,2013-09-01 07:26:00,
2013-09-01 03:31:00,66.0,65.4,31.01,SSE,166,0.0,0.0,98,0.00,,---,0.00,VWS V14.01,2013-09-01 07:31:00,
2013-09-01 03:36:00,66.0,65.4,31.01,SSE,166,0.0,0.0,98,0.00,,---,0.00,VWS V14.01,2013-09-01 07:36:00,
2013-09-01 03:41:00,65.8,65.3,31.01,SSE,166,0.0,0.0,98,0.00,,---,0.00,VWS V14.01,2013-09-01 07:41:00,
2013-09-01 03:46:00,66.0,65.4,31.01,SSE,166,0.0,0.0,98,0.00,,---,0.00,VWS V14.01,2013-09-01 07:46:00,
2013-09-01 03:51:00,66.0,65.4,31.01,SSE,166,0.0,0.0,98,0.00,,---,0.00,VWS V14.01,2013-09-01 07:51:00,
2013-09-01 03:56:00,66.0,65.4,31.01,SSE,166,0.0,0.0,98,0.00,,---,0.00,VWS V14.01,2013-09-01 07:56:00,
2013-09-01 04:01:00,65.8,65.3,31.01,SSE,166,0.0,0.0,98,0.00,,---,0.00,VWS V14.01,2013-09-01 08:01:00,
2013-09-01 04:06:00,65.8,65.3,31.01,SSE,166,0.0,0.0,98,0.00,,---,0.00,VWS V14.01,2013-09-01 08:06:00,
2013-09-01 04:11:00,65.8,65.3,31.01,SSE,166,0.0,0.0,98,0.00,,---,0.00,VWS V14.01,2013-09-01 08:11:00,
2013-09-01 04:16:00,65.8,65.3,31.01,SSE,166,0.0,0.0,98,0.00,,---,0.00,VWS V14.01,2013-09-01 08:16:00,
2013-09-01 04:21:00,65.7,65.1,31.01,SSE,166,0.0,0.0,98,0.00,,---,0.00,VWS V14.01,2013-09-01 08:21:00,
2013-09-01 04:26:00,65.7,65.1,31.01,SSE,166,0.0,0.0,98,0.00,,---,0.00,VWS V14.01,2013-09-01 08:26:00,
2013-09-01 04:31:00,65.8,65.3,31.01,SSE,166,0.0,0.0,98,0.00,,---,0.00,VWS V14.01,2013-09-01 08:31:00,
2013-09-01 04:36:00,65.8,65.3,31.01,SSE,166,0.0,0.0,98,0.00,,---,0.00,VWS V14.01,2013-09-01 08:36:00,
2013-09-01 04:41:00,65.8,65.3,31.01,SSE,166,0.0,0.0,98,0.00,,---,0.00,VWS V14.01,2013-09-01 08:41:00,
2013-09-01 04:46:00,65.7,65.1,31.01,SSE,166,0.0,0.0,98,0.00,,---,0.00,VWS V14.01,2013-09-01 08:46:00,
2013-09-01 04:51:00,65.7,65.1,31.01,SSE,166,0.0,0.0,98,0.00,,---,0.00,VWS V14.01,2013-09-01 08:51:00,
2013-09-01 04:56:00,65.5,64.9,31.01,SSE,166,0.0,0.0,98,0.00,,---,0.00,VWS V14.01,2013-09-01 08:56:00,
2013-09-01 05:01:00,65.5,64.9,31.01,SSE,166,0.0,0.0,98,0.00,,---,0.00,VWS V14.01,2013-09-01 09:01:00,
2013-09-01 05:06:00,65.3,64.7,31.01,SSE,166,0.0,0.0,98,0.00,,---,0.00,VWS V14.01,2013-09-01 09:06:00,
2013-09-01 05:11:00,65.3,64.7,31.01,SSE,166,0.0,0.0,98,0.00,,---,0.00,VWS V14.01,2013-09-01 09:11:00,
2013-09-01 05:16:00,65.3,64.7,31.01,SSE,166,0.0,0.0,98,0.00,,---,0.00,VWS V14.01,2013-09-01 09:16:00,
2013-09-01 05:21:00,65.1,64.5,31.01,SSE,166,0.0,0.0,98,0.00,,---,0.00,VWS V14.01,2013-09-01 09:21:00,
2013-09-01 05:26:00,65.1,64.5,31.01,SSE,166,0.0,0.0,98,0.00,,---,0.00,VWS V14.01,2013-09-01 09:26:00,
2013-09-01 05:31:00,65.1,64.5,31.01,SSE,166,0.0,0.0,98,0.00,,---,0.00,VWS V14.01,2013-09-01 09:31:00,
2013-09-01 05:36:00,64.9,64.4,31.01,SSE,166,0.0,0.0,98,0.00,,---,0.00,VWS V14.01,2013-09-01 09:36:00,
2013-09-01 05:41:00,64.8,64.2,31.01,SSE,166,0.0,0.0,98,0.00,,---,0.00,VWS V14.01,2013-09-01 09:41:00,
2013-09-01 05:46:00,64.8,64.2,31.01,SSE,166,0.0,0.0,98,0.00,,---,0.00,VWS V14.01,2013-09-01 09:46:00,
2013-09-01 05:51:00,64.8,64.2,31.01,SSE,166,0.0,0.0,98,0.00,,---,0.00,VWS V14.01,2013-09-01 09:51:00,
2013-09-01 05:56:00,64.8,64.2,31.01,SSE,166,0.0,0.0,98,0.00,,---,0.00,VWS V14.01,2013-09-01 09:56:00,
2013-09-01 06:01:00,64.9,64.4,31.01,SSE,166,0.0,0.0,98,0.00,,---,0.00,VWS V14.01,2013-09-01 10:01:00,
2013-09-01 06:06:00,64.9,64.4,31.01,SSE,166,0.0,0.0,98,0.00,,---,0.00,VWS V14.01,2013-09-01 10:06:00,
2013-09-01 06:11:00,64.9,64.4,31.01,SSE,166,0.0,0.0,98,0.00,,---,0.00,VWS V14.01,2013-09-01 10:11:00,
2013-09-01 06:16:00,65.1,64.5,31.01,SSE,166,0.0,0.0,98,0.00,,---,0.00,VWS V14.01,2013-09-01 10:16:00,
2013-09-01 06:21:00,65.1,64.5,31.01,SSE,166,0.0,0.0,98,0.00,,---,0.00,VWS V14.01,2013-09-01 10:21:00,
2013-09-01 06:26:00,65.3,64.7,31.01,SSE,166,0.0,0.0,98,0.00,,---,0.00,VWS V14.01,2013-09-01 10:26:00,
2013-09-01 06:31:00,65.5,64.9,31.01,SSE,166,0.0,0.0,98,0.00,,---,0.00,VWS V14.01,2013-09-01 10:31:00,
2013-09-01 06:36:00,65.5,64.9,31.01,SSE,166,0.0,0.0,98,0.00,,---,0.00,VWS V14.01,2013-09-01 10:36:00,
2013-09-01 06:41:00,65.5,64.9,31.01,SSE,166,0.0,0.0,98,0.00,,---,0.00,VWS V14.01,2013-09-01 10:41:00,
2013-09-01 06:46:00,65.5,64.9,31.01,SSE,166,0.0,0.0,98,0.00,,---,0.00,VWS V14.01,2013-09-01 10:46:00,
2013-09-01 06:51:00,65.5,64.9,31.01,SSE,166,0.0,0.0,98,0.00,,---,0.00,VWS V14.01,2013-09-01 10:51:00,
2013-09-01 06:56:00,65.5,64.9,31.01,SSE,166,0.0,0.0,98,0.00,,---,0.00,VWS V14.01,2013-09-01 10:56:00,
2013-09-01 07:01:00,65.5,64.9,31.01,SSE,166,0.0,0.0,98,0.00,,---,0.00,VWS V14.01,2013-09-01 11:01:00,
2013-09-01 07:06:00,65.5,64.9,31.01,SSE,166,0.0,0.0,98,0.00,,---,0.00,VWS V14.01,2013-09-01 11:06:00,
2013-09-01 07:11:00,65.7,65.1,31.01,SSE,166,0.0,0.0,98,0.00,,---,0.00,VWS V14.01,2013-09-01 11:11:00,
2013-09-01 07:16:00,65.7,65.1,31.01,SSE,166,0.0,0.0,98,0.00,,---,0.00,VWS V14.01,2013-09-01 11:16:00,
2013-09-01 07:21:00,65.8,65.3,31.01,SSE,166,0.0,0.0,98,0.00,,---,0.00,VWS V14.01,2013-09-01 11:21:00,
2013-09-01 07:26:00,65.8,65.3,31.01,SSE,166,0.0,0.0,98,0.00,,---,0.00,VWS V14.01,2013-09-01 11:26:00,
2013-09-01 07:31:00,65.8,65.3,31.01,SSE,166,0.0,0.0,98,0.00,,---,0.00,VWS V14.01,2013-09-01 11:31:00,
2013-09-01 07:36:00,65.8,65.3,31.01,SSE,166,0.0,0.0,98,0.00,,---,0.00,VWS V14.01,2013-09-01 11:36:00,
2013-09-01 07:41:00,65.8,65.3,31.01,SSE,166,0.0,0.0,98,0.00,,---,0.00,VWS V14.01,2013-09-01 11:41:00,
2013-09-01 07:46:00,66.0,65.4,31.01,SSE,166,0.0,0.0,98,0.00,,---,0.00,VWS V14.01,2013-09-01 11:46:00,
2013-09-01 07:51:00,66.2,65.6,31.01,SSE,166,0.0,0.0,98,0.00,,---,0.00,VWS V14.01,2013-09-01 11:51:00,
2013-09-01 07:56:00,66.4,65.8,31.01,SSE,166,0.0,0.0,98,0.00,,---,0.00,VWS V14.01,2013-09-01 11:56:00,
2013-09-01 08:01:00,66.4,65.8,31.01,SSE,166,0.0,0.0,98,0.00,,---,0.00,VWS V14.01,2013-09-01 12:01:00,
2013-09-01 08:06:00,66.4,65.8,31.01,SSE,166,0.0,0.0,98,0.00,,---,0.00,VWS V14.01,2013-09-01 12:06:00,
2013-09-01 08:11:00,66.4,65.8,31.01,SSE,166,0.0,0.0,98,0.00,,---,0.00,VWS V14.01,2013-09-01 12:11:00,
2013-09-01 08:16:00,66.6,66.0,31.01,SSE,166,0.0,0.0,98,0.00,,---,0.00,VWS V14.01,2013-09-01 12:16:00,
2013-09-01 08:21:00,67.1,66.5,31.01,SSE,166,0.0,0.0,98,0.00,,---,0.00,VWS V14.01,2013-09-01 12:21:00,
2013-09-01 08:26:00,67.6,67.1,31.01,SSE,166,0.0,0.0,98,0.00,,---,0.00,VWS V14.01,2013-09-01 12:26:00,
2013-09-01 08:31:00,68.4,67.8,31.01,SSE,166,0.0,0.0,98,0.00,,---,0.00,VWS V14.01,2013-09-01 12:31:00,
2013-09-01 08:36:00,68.7,68.1,31.01,SSE,166,0.0,0.0,98,0.00,,---,0.00,VWS V14.01,2013-09-01 12:36:00,
2013-09-01 08:41:00,69.3,68.7,31.01,SSE,166,0.0,0.0,98,0.00,,---,0.00,VWS V14.01,2013-09-01 12:41:00,
2013-09-01 08:46:00,69.8,69.2,31.01,SSE,166,0.0,0.0,98,0.00,,---,0.00,VWS V14.01,2013-09-01 12:46:00,
2013-09-01 08:51:00,70.3,69.8,31.01,SSE,166,0.0,0.0,98,0.00,,---,0.00,VWS V14.01,2013-09-01 12:51:00,
2013-09-01 08:56:00,70.7,70.1,31.01,SSE,166,0.0,0.0,98,0.00,,---,0.00,VWS V14.01,2013-09-01 12:56:00,
2013-09-01 09:01:00,71.4,70.8,31.01,SSE,166,0.0,0.0,98,0.00,,---,0.00,VWS V14.01,2013-09-01 13:01:00,
2013-09-01 09:06:00,72.0,71.4,31.01,SSE,166,0.0,0.0,98,0.00,,---,0.00,VWS V14.01,2013-09-01 13:06:00,
2013-09-01 09:11:00,72.3,71.7,31.01,SSE,166,0.0,0.0,98,0.00,,---,0.00,VWS V14.01,2013-09-01 13:11:00,
2013-09-01 09:16:00,72.1,71.6,31.01,SSE,166,0.0,0.0,98,0.00,,---,0.00,VWS V14.01,2013-09-01 13:16:00,
2013-09-01 09:21:00,71.6,71.0,31.01,SSE,166,0.0,0.0,98,0.00,,---,0.00,VWS V14.01,2013-09-01 13:21:00,
2013-09-01 09:26:00,73.2,72.6,31.01,SSE,166,0.0,0.0,98,0.00,,---,0.00,VWS V14.01,2013-09-01 13:26:00,
2013-09-01 09:31:00,73.2,72.6,31.01,SSE,166,0.0,0.0,98,0.00,,---,0.00,VWS V14.01,2013-09-01 13:31:00,
2013-09-01 09:36:00,73.2,72.6,31.01,SSE,166,0.0,0.0,98,0.00,,---,0.00,VWS V14.01,2013-09-01 13:36:00,
2013-09-01 09:41:00,73.0,72.4,31.01,SSE,166,0.0,0.0,98,0.00,,---,0.00,VWS V14.01,2013-09-01 13:41:00,
2013-09-01 09:46:00,73.2,72.6,31.01,SSE,166,0.0,0.0,98,0.00,,---,0.00,VWS V14.01,2013-09-01 13:46:00,
2013-09-01 09:51:00,73.4,72.8,31.01,SSE,166,0.0,0.0,98,0.00,,---,0.00,VWS V14.01,2013-09-01 13:51:00,
2013-09-01 09:56:00,73.8,73.2,31.01,SSE,166,0.0,0.0,98,0.00,,---,0.00,VWS V14.01,2013-09-01 13:56:00,
2013-09-01 10:01:00,73.8,73.2,31.01,SSE,166,0.0,0.0,98,0.00,,---,0.00,VWS V14.01,2013-09-01 14:01:00,
2013-09-01 10:06:00,74.3,73.7,31.01,SSE,166,0.0,0.0,98,0.00,,---,0.00,VWS V14.01,2013-09-01 14:06:00,
2013-09-01 10:11:00,74.8,74.2,31.01,SSE,166,0.0,2.2,98,0.00,,---,0.00,VWS V14.01,2013-09-01 14:11:00,
2013-09-01 10:16:00,75.2,74.6,31.01,SSE,166,0.0,2.2,98,0.00,,---,0.00,VWS V14.01,2013-09-01 14:16:00,
2013-09-01 10:21:00,75.9,75.3,31.01,SSE,166,3.1,3.1,98,0.00,,---,0.00,VWS V14.01,2013-09-01 14:21:00,
2013-09-01 10:26:00,76.8,76.2,31.01,SSE,166,0.0,3.1,98,0.00,,---,0.00,VWS V14.01,2013-09-01 14:26:00,
2013-09-01 10:31:00,76.6,76.0,31.01,SSE,166,0.0,2.2,98,0.00,,---,0.00,VWS V14.01,2013-09-01 14:31:00,
2013-09-01 10:36:00,77.2,75.6,31.01,SSE,166,0.0,0.0,95,0.00,,---,0.00,VWS V14.01,2013-09-01 14:36:00,
2013-09-01 10:41:00,77.9,76.4,31.01,SSE,166,0.0,0.0,95,0.00,,---,0.00,VWS V14.01,2013-09-01 14:41:00,
2013-09-01 10:46:00,78.8,76.3,31.01,SSE,166,0.0,0.0,92,0.00,,---,0.00,VWS V14.01,2013-09-01 14:46:00,
2013-09-01 10:51:00,79.2,76.6,31.01,SSE,166,0.0,0.0,92,0.00,,---,0.00,VWS V14.01,2013-09-01 14:51:00,
2013-09-01 10:56:00,78.8,75.3,31.01,SSE,166,0.0,0.0,89,0.00,,---,0.00,VWS V14.01,2013-09-01 14:56:00,
2013-09-01 11:01:00,78.6,75.1,31.01,SSE,166,0.0,0.0,89,0.00,,---,0.00,VWS V14.01,2013-09-01 15:01:00,
2013-09-01 11:06:00,78.8,74.9,31.01,SSE,166,0.0,0.0,88,0.00,,---,0.00,VWS V14.01,2013-09-01 15:06:00,
2013-09-01 11:11:00,79.9,75.7,31.01,SSE,166,0.0,3.6,87,0.00,,---,0.00,VWS V14.01,2013-09-01 15:11:00,
2013-09-01 11:16:00,80.1,75.2,31.01,SSE,164,0.0,0.0,85,0.00,,---,0.00,VWS V14.01,2013-09-01 15:16:00,
2013-09-01 11:21:00,80.2,74.2,31.01,SSE,164,0.0,0.0,82,0.00,,---,0.00,VWS V14.01,2013-09-01 15:21:00,
2013-09-01 11:26:00,81.0,73.8,31.01,SSE,159,0.0,3.1,79,0.00,,---,0.00,VWS V14.01,2013-09-01 15:26:00,
2013-09-01 11:31:00,81.3,73.4,31.01,SE,124,0.0,0.0,77,0.00,,---,0.00,VWS V14.01,2013-09-01 15:31:00,
2013-09-01 11:36:00,81.1,73.2,31.01,ESE,122,0.0,2.7,77,0.00,,---,0.00,VWS V14.01,2013-09-01 15:36:00,
2013-09-01 11:41:00,81.7,73.4,31.01,ESE,122,0.0,0.0,76,0.00,,---,0.00,VWS V14.01,2013-09-01 15:41:00,
2013-09-01 11:46:00,82.4,74.1,31.01,ESE,120,0.0,0.0,76,0.00,,---,0.00,VWS V14.01,2013-09-01 15:46:00,
2013-09-01 11:51:00,83.1,74.4,31.01,East,101,0.0,2.7,75,0.00,,---,0.00,VWS V14.01,2013-09-01 15:51:00,
2013-09-01 11:56:00,84.0,74.0,31.01,East,101,0.0,0.0,72,0.00,,---,0.00,VWS V14.01,2013-09-01 15:56:00,
2013-09-01 12:01:00,84.0,74.0,31.01,ESE,107,2.7,2.7,72,0.00,,---,0.00,VWS V14.01,2013-09-01 16:01:00,
2013-09-01 12:06:00,84.2,73.4,31.01,ESE,112,0.0,3.1,70,0.00,,---,0.00,VWS V14.01,2013-09-01 16:06:00,
2013-09-01 12:11:00,84.0,74.4,31.01,ENE,76,0.0,2.7,73,0.00,,---,0.00,VWS V14.01,2013-09-01 16:11:00,
2013-09-01 12:16:00,84.0,73.6,31.01,ENE,76,0.0,0.0,71,0.00,,---,0.00,VWS V14.01,2013-09-01 16:16:00,
2013-09-01 12:21:00,84.9,74.9,31.01,ENE,76,2.7,2.7,72,0.00,,---,0.00,VWS V14.01,2013-09-01 16:21:00,
2013-09-01 12:26:00,85.1,75.9,31.01,ENE,76,0.0,2.2,74,0.00,,---,0.00,VWS V14.01,2013-09-01 16:26:00,
2013-09-01 12:31:00,85.6,75.2,31.01,ENE,76,0.0,3.1,71,0.00,,---,0.00,VWS V14.01,2013-09-01 16:31:00,
2013-09-01 12:36:00,85.8,74.0,31.01,ENE,76,2.7,2.7,68,0.00,,---,0.00,VWS V14.01,2013-09-01 16:36:00,
2013-09-01 12:41:00,84.9,74.5,31.01,ENE,76,0.0,2.7,71,0.00,,---,0.00,VWS V14.01,2013-09-01 16:41:00,
2013-09-01 12:46:00,83.5,74.7,31.01,ENE,76,2.2,2.7,75,0.00,,---,0.00,VWS V14.01,2013-09-01 16:46:00,
2013-09-01 12:51:00,83.1,75.2,31.01,ENE,76,0.0,0.0,77,0.00,,---,0.00,VWS V14.01,2013-09-01 16:51:00,
2013-09-01 12:56:00,83.7,74.9,31.01,ENE,76,2.2,2.2,75,0.00,,---,0.00,VWS V14.01,2013-09-01 16:56:00,
2013-09-01 13:01:00,84.0,74.0,31.01,ENE,77,2.2,2.7,72,0.00,,---,0.00,VWS V14.01,2013-09-01 17:01:00,
2013-09-01 13:06:00,84.9,74.5,31.01,ENE,77,2.7,2.7,71,0.00,,---,0.00,VWS V14.01,2013-09-01 17:06:00,
2013-09-01 13:11:00,85.3,74.0,31.01,East,96,0.0,0.0,69,0.00,,---,0.00,VWS V14.01,2013-09-01 17:11:00,
2013-09-01 13:16:00,84.7,73.9,31.01,East,96,0.0,2.7,70,0.00,,---,0.00,VWS V14.01,2013-09-01 17:16:00,
2013-09-01 13:21:00,84.2,74.2,31.01,East,96,0.0,0.0,72,0.00,,---,0.00,VWS V14.01,2013-09-01 17:21:00,
2013-09-01 13:26:00,83.3,74.2,31.01,East,96,0.0,0.0,74,0.00,,---,0.00,VWS V14.01,2013-09-01 17:26:00,
2013-09-01 13:31:00,82.9,74.6,31.01,East,96,0.0,0.0,76,0.00,,---,0.00,VWS V14.01,2013-09-01 17:31:00,
2013-09-01 13:36:00,83.5,74.7,31.01,East,96,0.0,0.0,75,0.00,,---,0.00,VWS V14.01,2013-09-01 17:36:00,
2013-09-01 13:41:00,83.8,74.7,31.01,East,96,0.0,0.0,74,0.00,,---,0.00,VWS V14.01,2013-09-01 17:41:00,
2013-09-01 13:46:00,83.8,74.3,31.01,East,96,0.0,0.0,73,0.00,,---,0.00,VWS V14.01,2013-09-01 17:46:00,
2013-09-01 13:51:00,84.2,74.2,31.01,East,96,2.2,2.7,72,0.00,,---,0.00,VWS V14.01,2013-09-01 17:51:00,
2013-09-01 13:56:00,84.6,74.5,31.01,East,96,2.7,2.7,72,0.00,,---,0.00,VWS V14.01,2013-09-01 17:56:00,
2013-09-01 14:01:00,84.6,75.0,31.01,East,96,0.0,2.7,73,0.00,,---,0.00,VWS V14.01,2013-09-01 18:01:00,
2013-09-01 14:06:00,84.9,73.6,31.01,East,96,2.2,3.1,69,0.00,,---,0.00,VWS V14.01,2013-09-01 18:06:00,
2013-09-01 14:11:00,84.9,73.2,31.01,East,96,0.0,2.2,68,0.00,,---,0.00,VWS V14.01,2013-09-01 18:11:00,
2013-09-01 14:16:00,85.3,74.4,31.01,East,96,0.0,0.0,70,0.00,,---,0.00,VWS V14.01,2013-09-01 18:16:00,
2013-09-01 14:21:00,85.5,73.7,31.01,ENE,75,2.7,3.1,68,0.00,,---,0.00,VWS V14.01,2013-09-01 18:21:00,
2013-09-01 14:26:00,85.3,73.5,31.01,SE,131,2.7,3.6,68,0.00,,---,0.00,VWS V14.01,2013-09-01 18:26:00,
2013-09-01 14:31:00,84.6,72.8,31.01,SE,131,0.0,0.0,68,0.00,,---,0.00,VWS V14.01,2013-09-01 18:31:00,
2013-09-01 14:36:00,85.3,72.6,31.01,SSE,152,2.2,3.6,66,0.00,,---,0.00,VWS V14.01,2013-09-01 18:36:00,
2013-09-01 14:41:00,85.6,71.1,31.01,NNW,332,4.0,4.0,62,0.00,,---,0.00,VWS V14.01,2013-09-01 18:41:00,
2013-09-01 14:46:00,85.8,70.3,31.01,ESE,119,3.6,3.6,60,0.00,,---,0.00,VWS V14.01,2013-09-01 18:46:00,
2013-09-01 14:51:00,85.6,71.6,31.01,ESE,118,0.0,0.0,63,0.00,,---,0.00,VWS V14.01,2013-09-01 18:51:00,
2013-09-01 14:56:00,85.1,71.6,31.01,WSW,251,3.6,3.6,64,0.00,,---,0.00,VWS V14.01,2013-09-01 18:56:00,
2013-09-01 15:01:00,85.6,72.5,31.01,WSW,242,0.0,0.0,65,0.00,,---,0.00,VWS V14.01,2013-09-01 19:01:00,
2013-09-01 15:06:00,85.6,70.7,31.01,WSW,241,0.0,0.0,61,0.00,,---,0.00,VWS V14.01,2013-09-01 19:06:00,
2013-09-01 15:11:00,86.0,70.5,31.01,WSW,239,2.2,2.7,60,0.00,,---,0.00,VWS V14.01,2013-09-01 19:11:00,
2013-09-01 15:16:00,85.6,71.1,31.01,WNW,303,2.7,2.7,62,0.00,,---,0.00,VWS V14.01,2013-09-01 19:16:00,
2013-09-01 15:21:00,84.9,70.9,31.01,WSW,245,0.0,0.0,63,0.00,,---,0.00,VWS V14.01,2013-09-01 19:21:00,
2013-09-01 15:26:00,84.2,69.8,31.01,North,349,0.0,2.2,62,0.00,,---,0.00,VWS V14.01,2013-09-01 19:26:00,
2013-09-01 15:31:00,83.5,70.0,31.01,ESE,105,2.2,2.2,64,0.00,,---,0.00,VWS V14.01,2013-09-01 19:31:00,
2013-09-01 15:36:00,83.8,70.4,31.01,WNW,287,3.6,3.6,64,0.00,,---,0.00,VWS V14.01,2013-09-01 19:36:00,
2013-09-01 15:41:00,84.4,70.9,31.01,WSW,244,0.0,0.0,64,0.00,,---,0.00,VWS V14.01,2013-09-01 19:41:00,
2013-09-01 15:46:00,84.7,70.8,31.01,WSW,238,2.7,3.6,63,0.00,,---,0.00,VWS V14.01,2013-09-01 19:46:00,
2013-09-01 15:51:00,85.1,70.6,31.01,WSW,238,0.0,2.2,62,0.00,,---,0.00,VWS V14.01,2013-09-01 19:51:00,
2013-09-01 15:56:00,85.3,70.3,31.01,NW,306,4.0,4.0,61,0.00,,---,0.00,VWS V14.01,2013-09-01 19:56:00,
2013-09-01 16:01:00,85.5,69.0,31.01,WSW,237,2.7,2.7,58,0.00,,---,0.00,VWS V14.01,2013-09-01 20:01:00,
2013-09-01 16:06:00,85.5,66.9,31.01,SSW,209,2.2,2.2,54,0.00,,---,0.00,VWS V14.01,2013-09-01 20:06:00,
2013-09-01 16:11:00,85.8,68.3,31.01,NE,39,2.7,2.7,56,0.00,,---,0.00,VWS V14.01,2013-09-01 20:11:00,
2013-09-01 16:16:00,85.3,67.3,31.01,WNW,294,2.7,2.7,55,0.00,,---,0.00,VWS V14.01,2013-09-01 20:16:00,
2013-09-01 16:21:00,84.9,67.5,31.01,SW,216,2.7,2.7,56,0.00,,---,0.00,VWS V14.01,2013-09-01 20:21:00,
2013-09-01 16:26:00,85.1,68.7,31.01,NNE,13,0.0,2.2,58,0.00,,---,0.00,VWS V14.01,2013-09-01 20:26:00,
2013-09-01 16:31:00,84.6,68.7,31.01,WNW,294,3.1,3.1,59,0.00,,---,0.00,VWS V14.01,2013-09-01 20:31:00,
2013-09-01 16:36:00,84.0,70.1,31.01,WNW,289,0.0,0.0,63,0.00,,---,0.00,VWS V14.01,2013-09-01 20:36:00,
2013-09-01 16:41:00,83.7,70.7,31.01,WNW,289,0.0,0.0,65,0.00,,---,0.00,VWS V14.01,2013-09-01 20:41:00,
2013-09-01 16:46:00,83.5,71.4,31.01,WNW,289,0.0,0.0,67,0.00,,---,0.00,VWS V14.01,2013-09-01 20:46:00,
2013-09-01 16:51:00,82.6,71.4,31.01,WSW,244,3.1,4.9,69,0.00,,---,0.00,VWS V14.01,2013-09-01 20:51:00,
2013-09-01 16:56:00,79.5,70.5,31.01,WNW,294,2.7,2.7,74,0.00,,---,0.00,VWS V14.01,2013-09-01 20:56:00,
2013-09-01 17:01:00,75.2,70.4,31.01,NW,324,2.7,3.6,85,0.12,,---,0.12,VWS V14.01,2013-09-01 21:01:00,
2013-09-01 17:06:00,73.9,70.8,31.01,North,353,0.0,0.0,90,0.12,,---,0.12,VWS V14.01,2013-09-01 21:06:00,
2013-09-01 17:11:00,73.6,71.8,31.01,SE,136,0.0,2.7,94,0.12,,---,0.12,VWS V14.01,2013-09-01 21:11:00,
2013-09-01 17:16:00,72.9,71.3,31.01,SW,234,0.0,0.0,95,0.12,,---,0.12,VWS V14.01,2013-09-01 21:16:00,
2013-09-01 17:21:00,72.7,72.1,31.01,SW,220,3.1,3.1,98,0.12,,---,0.12,VWS V14.01,2013-09-01 21:21:00,
2013-09-01 17:26:00,72.0,71.4,31.01,WSW,237,0.0,2.7,98,0.12,,---,0.00,VWS V14.01,2013-09-01 21:26:00,
2013-09-01 17:31:00,71.8,71.2,31.01,WSW,237,0.0,0.0,98,0.12,,---,0.12,VWS V14.01,2013-09-01 21:31:00,
2013-09-01 17:36:00,71.4,70.8,31.01,WSW,237,0.0,0.0,98,0.12,,---,0.12,VWS V14.01,2013-09-01 21:36:00,
2013-09-01 17:41:00,71.4,70.8,31.01,WSW,237,0.0,0.0,98,0.12,,---,0.00,VWS V14.01,2013-09-01 21:41:00,
2013-09-01 17:46:00,71.2,70.7,31.01,WSW,237,0.0,0.0,98,0.12,,---,0.12,VWS V14.01,2013-09-01 21:46:00,
2013-09-01 17:51:00,71.2,70.7,31.01,WSW,237,0.0,0.0,98,0.12,,---,0.12,VWS V14.01,2013-09-01 21:51:00,
2013-09-01 17:56:00,71.2,70.7,31.01,WSW,237,0.0,0.0,98,0.12,,---,0.12,VWS V14.01,2013-09-01 21:56:00,
2013-09-01 18:01:00,71.4,70.8,31.01,WSW,237,0.0,0.0,98,0.04,,---,0.12,VWS V14.01,2013-09-01 22:01:00,
2013-09-01 18:06:00,71.8,71.2,31.01,WSW,237,2.2,2.2,98,0.00,,---,0.12,VWS V14.01,2013-09-01 22:06:00,
2013-09-01 18:11:00,72.1,71.6,31.01,WSW,237,2.2,2.2,98,0.00,,---,0.12,VWS V14.01,2013-09-01 22:11:00,
2013-09-01 18:16:00,72.1,71.6,31.01,WSW,237,0.0,0.0,98,0.00,,---,0.12,VWS V14.01,2013-09-01 22:16:00,
2013-09-01 18:21:00,72.0,71.4,31.01,WSW,237,2.7,2.7,98,0.00,,---,0.12,VWS V14.01,2013-09-01 22:21:00,
2013-09-01 18:26:00,72.0,71.4,31.01,WSW,237,2.7,2.7,98,0.00,,---,0.12,VWS V14.01,2013-09-01 22:26:00,
2013-09-01 18:31:00,72.1,71.6,31.01,WSW,237,2.7,2.7,98,0.00,,---,0.12,VWS V14.01,2013-09-01 22:31:00,
2013-09-01 18:36:00,72.0,71.4,31.01,WSW,237,2.7,2.7,98,0.00,,---,0.12,VWS V14.01,2013-09-01 22:36:00,
2013-09-01 18:41:00,72.0,71.4,31.01,WSW,237,0.0,0.0,98,0.00,,---,0.12,VWS V14.01,2013-09-01 22:41:00,
2013-09-01 18:46:00,71.8,71.2,31.01,WSW,237,2.2,2.2,98,0.00,,---,0.12,VWS V14.01,2013-09-01 22:46:00,
2013-09-01 18:51:00,71.6,71.0,31.01,WSW,237,0.0,0.0,98,0.00,,---,0.12,VWS V14.01,2013-09-01 22:51:00,
2013-09-01 18:56:00,71.4,70.8,31.01,WSW,237,0.0,0.0,98,0.00,,---,0.12,VWS V14.01,2013-09-01 22:56:00,
2013-09-01 19:01:00,71.2,70.7,31.01,WSW,237,0.0,0.0,98,0.00,,---,0.12,VWS V14.01,2013-09-01 23:01:00,
2013-09-01 19:06:00,71.1,70.5,31.01,WSW,237,0.0,0.0,98,0.00,,---,0.12,VWS V14.01,2013-09-01 23:06:00,
2013-09-01 19:11:00,70.9,70.3,31.01,WSW,237,0.0,0.0,98,0.00,,---,0.12,VWS V14.01,2013-09-01 23:11:00,
2013-09-01 19:16:00,70.7,70.1,31.01,WSW,237,0.0,0.0,98,0.00,,---,0.12,VWS V14.01,2013-09-01 23:16:00,
2013-09-01 19:21:00,70.5,69.9,31.01,WSW,237,0.0,0.0,98,0.00,,---,0.12,VWS V14.01,2013-09-01 23:21:00,
2013-09-01 19:26:00,70.3,69.8,31.01,WSW,237,0.0,0.0,98,0.00,,---,0.12,VWS V14.01,2013-09-01 23:26:00,
2013-09-01 19:31:00,70.2,69.6,31.01,WSW,237,0.0,0.0,98,0.00,,---,0.12,VWS V14.01,2013-09-01 23:31:00,
2013-09-01 19:36:00,70.0,69.4,31.01,WSW,237,0.0,0.0,98,0.00,,---,0.12,VWS V14.01,2013-09-01 23:36:00,
2013-09-01 19:41:00,70.0,69.4,31.01,WSW,237,0.0,0.0,98,0.00,,---,0.12,VWS V14.01,2013-09-01 23:41:00,
2013-09-01 19:46:00,70.0,69.4,31.01,WSW,237,0.0,0.0,98,0.00,,---,0.12,VWS V14.01,2013-09-01 23:46:00,
2013-09-01 19:51:00,70.0,69.4,31.01,WSW,237,0.0,0.0,98,0.00,,---,0.12,VWS V14.01,2013-09-01 23:51:00,
2013-09-01 19:56:00,70.2,69.6,31.01,WSW,237,0.0,0.0,98,0.00,,---,0.12,VWS V14.01,2013-09-01 23:56:00,
2013-09-01 20:01:00,70.0,69.4,31.01,WNW,289,5.4,9.6,98,0.00,,---,0.12,VWS V14.01,2013-09-02 00:01:00,
2013-09-01 20:06:00,68.5,68.0,31.01,WNW,286,6.7,6.7,98,0.08,,---,0.20,VWS V14.01,2013-09-02 00:06:00,
2013-09-01 20:11:00,67.8,67.2,31.01,WSW,239,0.0,0.0,98,0.16,,---,0.28,VWS V14.01,2013-09-02 00:11:00,
2013-09-01 20:16:00,67.8,67.2,31.01,WSW,239,0.0,0.0,98,0.20,,---,0.31,VWS V14.01,2013-09-02 00:16:00,
2013-09-01 20:21:00,67.6,67.1,31.01,WSW,239,0.0,0.0,98,0.20,,---,0.31,VWS V14.01,2013-09-02 00:21:00,
2013-09-01 20:26:00,67.5,66.9,31.01,WSW,239,0.0,0.0,98,0.20,,---,0.31,VWS V14.01,2013-09-02 00:26:00,
2013-09-01 20:31:00,67.1,66.5,31.01,WSW,239,2.7,2.7,98,0.24,,---,0.00,VWS V14.01,2013-09-02 00:31:00,
2013-09-01 20:36:00,66.9,66.3,31.01,WSW,239,2.2,2.7,98,0.24,,---,0.35,VWS V14.01,2013-09-02 00:36:00,
2013-09-01 20:41:00,66.9,66.3,31.01,WSW,239,2.7,3.1,98,0.24,,---,0.35,VWS V14.01,2013-09-02 00:41:00,
2013-09-01 20:46:00,66.7,66.2,31.01,WSW,239,2.7,2.7,98,0.24,,---,0.35,VWS V14.01,2013-09-02 00:46:00,
2013-09-01 20:51:00,66.7,66.2,31.01,WSW,239,0.0,0.0,98,0.24,,---,0.35,VWS V14.01,2013-09-02 00:51:00,
2013-09-01 20:56:00,66.7,66.2,31.01,WSW,239,0.0,0.0,98,0.24,,---,0.35,VWS V14.01,2013-09-02 00:56:00,
2013-09-01 21:01:00,66.7,66.2,31.01,WSW,239,0.0,0.0,98,0.24,,---,0.35,VWS V14.01,2013-09-02 01:01:00,
2013-09-01 21:06:00,66.6,66.0,31.01,WSW,239,0.0,0.0,98,0.16,,---,0.35,VWS V14.01,2013-09-02 01:06:00,
2013-09-01 21:11:00,66.6,66.0,31.01,WSW,239,0.0,0.0,98,0.08,,---,0.35,VWS V14.01,2013-09-02 01:11:00,
2013-09-01 21:16:00,66.4,65.8,31.01,WSW,239,0.0,0.0,98,0.04,,---,0.35,VWS V14.01,2013-09-02 01:16:00,
2013-09-01 21:21:00,66.4,65.8,31.01,WSW,239,0.0,0.0,98,0.04,,---,0.35,VWS V14.01,2013-09-02 01:21:00,
2013-09-01 21:26:00,66.2,65.6,31.01,WSW,239,0.0,0.0,98,0.04,,---,0.35,VWS V14.01,2013-09-02 01:26:00,
2013-09-01 21:31:00,66.4,65.8,31.01,WSW,239,0.0,0.0,98,0.00,,---,0.35,VWS V14.01,2013-09-02 01:31:00,
2013-09-01 21:36:00,66.2,65.6,31.01,WSW,239,0.0,0.0,98,0.00,,---,0.35,VWS V14.01,2013-09-02 01:36:00,
2013-09-01 21:41:00,66.4,65.8,31.01,WSW,239,0.0,0.0,98,0.00,,---,0.35,VWS V14.01,2013-09-02 01:41:00,
2013-09-01 21:46:00,66.2,65.6,31.01,WSW,239,0.0,0.0,98,0.00,,---,0.35,VWS V14.01,2013-09-02 01:46:00,
2013-09-01 21:51:00,66.2,65.6,31.01,WSW,239,0.0,0.0,98,0.00,,---,0.35,VWS V14.01,2013-09-02 01:51:00,
2013-09-01 21:56:00,66.2,65.6,31.01,WSW,239,0.0,0.0,98,0.00,,---,0.35,VWS V14.01,2013-09-02 01:56:00,
2013-09-01 22:01:00,66.2,65.6,31.01,WSW,239,0.0,0.0,98,0.00,,---,0.35,VWS V14.01,2013-09-02 02:01:00,
2013-09-01 22:06:00,66.2,65.6,31.01,WSW,239,0.0,0.0,98,0.00,,---,0.35,VWS V14.01,2013-09-02 02:06:00,
2013-09-01 22:11:00,66.2,65.6,31.01,WSW,239,0.0,0.0,98,0.00,,---,0.35,VWS V14.01,2013-09-02 02:11:00,
2013-09-01 22:16:00,66.0,65.4,31.01,WSW,239,0.0,0.0,98,0.00,,---,0.35,VWS V14.01,2013-09-02 02:16:00,
2013-09-01 22:20:00,66.0,65.4,31.01,WSW,239,0.0,0.0,98,0.00,,---,0.35,VWS V14.01,2013-09-02 02:20:00,
2013-09-01 22:25:00,66.0,65.4,31.01,WSW,239,0.0,0.0,98,0.00,,---,0.35,VWS V14.01,2013-09-02 02:25:00,
2013-09-01 22:30:00,65.8,65.3,31.01,WSW,239,0.0,0.0,98,0.00,,---,0.35,VWS V14.01,2013-09-02 02:30:00,
2013-09-01 22:35:00,65.8,65.3,31.01,WSW,239,0.0,0.0,98,0.00,,---,0.35,VWS V14.01,2013-09-02 02:35:00,
2013-09-01 22:40:00,65.8,65.3,31.01,WSW,239,0.0,0.0,98,0.00,,---,0.35,VWS V14.01,2013-09-02 02:40:00,
2013-09-01 22:45:00,65.8,65.3,31.01,WSW,239,0.0,0.0,98,0.00,,---,0.35,VWS V14.01,2013-09-02 02:45:00,
2013-09-01 22:50:00,65.7,65.1,31.01,WSW,239,0.0,0.0,98,0.00,,---,0.00,VWS V14.01,2013-09-02 02:50:00,
2013-09-01 22:55:00,65.7,65.1,31.01,WSW,239,0.0,0.0,98,0.00,,---,0.35,VWS V14.01,2013-09-02 02:55:00,
2013-09-01 23:00:00,65.7,65.1,31.01,WSW,239,0.0,0.0,98,0.00,,---,0.35,VWS V14.01,2013-09-02 03:00:00,
2013-09-01 23:05:00,65.5,64.9,31.01,WSW,239,0.0,0.0,98,0.00,,---,0.35,VWS V14.01,2013-09-02 03:05:00,
2013-09-01 23:10:00,65.5,64.9,31.01,WSW,239,0.0,0.0,98,0.00,,---,0.35,VWS V14.01,2013-09-02 03:10:00,
2013-09-01 23:15:00,65.5,64.9,31.01,WSW,239,0.0,0.0,98,0.00,,---,0.35,VWS V14.01,2013-09-02 03:15:00,
2013-09-01 23:20:00,65.5,64.9,31.01,WSW,239,0.0,0.0,98,0.00,,---,0.35,VWS V14.01,2013-09-02 03:20:00,
2013-09-01 23:25:00,65.3,64.7,31.01,WSW,239,0.0,0.0,98,0.00,,---,0.35,VWS V14.01,2013-09-02 03:25:00,
2013-09-01 23:30:00,65.3,64.7,31.01,WSW,239,0.0,0.0,98,0.00,,---,0.35,VWS V14.01,2013-09-02 03:30:00,
2013-09-01 23:35:00,65.3,64.7,31.01,WSW,239,0.0,0.0,98,0.00,,---,0.35,VWS V14.01,2013-09-02 03:35:00,
2013-09-01 23:40:00,65.5,64.9,31.01,WSW,239,0.0,0.0,98,0.00,,---,0.35,VWS V14.01,2013-09-02 03:40:00,
2013-09-01 23:45:00,65.5,64.9,31.01,WSW,239,0.0,0.0,98,0.00,,---,0.35,VWS V14.01,2013-09-02 03:45:00,
2013-09-01 23:50:00,65.5,64.9,31.01,WSW,239,0.0,0.0,98,0.00,,---,0.35,VWS V14.01,2013-09-02 03:50:00,
2013-09-01 23:55:00,65.5,64.9,31.01,WSW,239,0.0,0.0,98,0.00,,---,0.35,VWS V14.01,2013-09-02 03:55:00,